Lapse_Rate
6.6 6.5 6.3 6.1 6.1 6.0 5.8 5.6 5.5 5.5 5.4 5.3 5.4 5.5 5.5 5.4 5.4 5.5 5.5 5.5 5.3 5.4 5.4 5.4 5.4 5.4 5.4 5.3 5.3 5.4 5.5 5.5 5.6 5.8 5.9 5.9 5.9 6.0 6.1 6.2 6.3 6.5 6.5
6.6 6.6 6.4 6.2 6.1 6.0 5.9 5.8 5.7 5.6 5.5 5.5 5.6 5.5 5.5 5.4 5.4 5.4 5.4 5.5 5.4 5.4 5.5 5.6 5.6 5.6 5.6 5.5 5.6 5.6 5.6 5.8 5.9 6.0 6.0 6.0 6.0 6.1 6.2 6.3 6.4 6.4 6.5
6.6 6.5 6.4 6.3 6.1 6.1 6.0 5.9 5.9 5.9 5.7 5.6 5.6 5.5 5.5 5.6 5.6 5.4 5.4 5.5 5.4 5.4 5.4 5.4 5.5 5.6 5.6 5.6 5.6 5.6 5.6 5.8 6.0 6.1 6.2 6.2 6.2 6.2 6.2 6.3 6.3 6.4 6.4
6.8 6.6 6.5 6.3 6.2 6.1 6.0 6.0 6.0 5.8 5.8 5.6 5.5 5.5 5.6 5.6 5.5 5.5 5.5 5.3 5.3 5.3 5.3 5.4 5.5 5.6 5.6 5.6 5.5 5.6 5.5 5.8 6.0 6.0 6.1 6.3 6.3 6.3 6.3 6.4 6.4 6.4 6.5
6.9 6.7 6.5 6.4 6.3 6.2 6.1 5.9 5.8 5.8 5.6 5.6 5.6 5.5 5.5 5.4 5.4 5.4 5.4 5.4 5.4 5.4 5.3 5.4 5.5 5.5 5.6 5.6 5.5 5.5 5.6 5.6 5.7 5.8 5.9 6.2 6.3 6.3 6.4 6.4 6.5 6.5 6.5
7.0 6.8 6.6 6.4 6.3 6.3 6.2 6.1 5.8 5.7 5.8 5.8 5.7 5.6 5.4 5.3 5.2 5.3 5.2 5.3 5.3 5.2 5.2 5.3 5.4 5.4 5.5 5.5 5.5 5.5 5.6 5.5 5.4 5.5 5.7 5.9 6.1 6.2 6.4 6.5 6.6 6.7 6.7
7.0 6.9 6.7 6.4 6.3 6.3 6.1 6.1 5.9 5.9 5.9 5.8 5.7 5.6 5.5 5.3 5.2 5.1 5.1 5.1 5.0 5.1 5.1 5.2 5.1 5.2 5.3 5.4 5.4 5.5 5.5 5.5 5.5 5.6 5.8 5.8 5.9 6.0 6.3 6.3 6.5 6.6 6.7
6.9 6.8 6.6 6.4 6.3 6.3 6.2 6.1 6.0 6.0 6.0 6.0 5.9 5.6 5.4 5.4 5.3 5.3 5.2 5.1 5.0 5.1 5.1 5.0 5.0 5.0 5.1 5.1 5.2 5.1 5.2 5.3 5.4 5.5 5.6 5.8 5.8 5.9 5.9 6.1 6.1 6.2 6.4
6.9 6.7 6.5 6.4 6.4 6.3 6.2 6.1 6.0 6.0 6.0 5.9 5.8 5.7 5.5 5.4 5.4 5.5 5.4 5.3 5.2 5.2 5.2 5.1 5.1 5.1 5.2 5.2 5.3 5.2 5.1 5.2 5.2 5.3 5.4 5.5 5.6 5.7 5.8 5.8 6.0 6.0 6.1
7.0 6.9 6.6 6.4 6.4 6.4 6.2 6.1 6.0 6.0 5.9 5.8 5.7 5.6 5.5 5.4 5.5 5.4 5.4 5.4 5.4 5.3 5.3 5.3 5.3 5.3 5.2 5.3 5.3 5.4 5.3 5.2 5.3 5.4 5.4 5.4 5.5 5.6 5.7 5.8 5.9 6.0 6.1
7.0 6.9 6.7 6.6 6.5 6.3 6.3 6.2 6.1 5.9 5.9 5.8 5.6 5.6 5.6 5.6 5.5 5.5 5.5 5.4 5.4 5.4 5.4 5.4 5.3 5.3 5.3 5.4 5.4 5.5 5.5 5.4 5.4 5.5 5.5 5.5 5.6 5.6 5.6 5.7 5.9 5.9 6.0
6.7 6.7 6.6 6.5 6.5 6.4 6.4 6.3 6.2 6.1 5.9 5.8 5.8 5.7 5.7 5.6 5.6 5.6 5.6 5.5 5.4 5.4 5.4 5.3 5.4 5.5 5.5 5.6 5.6 5.6 5.6 5.7 5.6 5.6 5.7 5.7 5.7 5.7 5.7 5.8 6.0 6.0 6.1
6.5 6.6 6.6 6.5 6.5 6.5 6.4 6.3 6.2 6.1 6.0 6.0 5.8 5.8 5.8 5.8 5.8 5.8 5.8 5.7 5.6 5.6 5.5 5.5 5.5 5.6 5.6 5.7 5.7 5.8 5.8 5.8 5.8 5.8 5.8 5.9 5.9 5.9 6.0 6.0 6.0 6.2 6.2
6.8 6.7 6.7 6.6 6.5 6.4 6.3 6.2 6.1 6.1 6.1 6.0 6.0 5.9 5.9 5.9 5.9 5.9 5.9 5.8 5.7 5.7 5.6 5.7 5.7 5.7 5.7 5.7 5.8 5.8 5.8 5.9 6.0 6.0 6.0 6.0 6.0 6.1 6.1 6.1 6.1 6.2 6.3
6.7 6.6 6.6 6.6 6.5 6.3 6.2 6.1 6.1 6.0 6.0 5.9 5.9 5.8 5.8 5.9 5.9 5.9 5.8 5.8 5.8 5.8 5.7 5.8 5.8 5.8 5.8 5.8 5.8 5.8 5.8 5.9 6.0 6.1 6.3 6.2 6.1 6.1 6.3 6.3 6.2 6.3 6.5
6.7 6.6 6.4 6.4 6.4 6.3 6.1 6.1 6.0 6.0 5.8 5.8 5.7 5.7 5.8 5.8 5.7 5.7 5.7 5.8 5.8 5.8 5.7 5.7 5.6 5.7 5.7 5.8 5.8 5.8 5.9 5.9 6.0 6.4 6.5 6.6 6.6 6.4 6.2 6.4 6.4 6.4 6.5
6.5 6.3 6.3 6.2 6.2 6.2 6.0 6.0 5.9 5.9 5.9 5.8 5.6 5.6 5.6 5.6 5.6 5.7 5.8 5.8 5.7 5.8 5.8 5.8 5.8 5.8 5.9 5.8 5.8 5.7 5.7 5.7 6.0 6.1 6.3 6.5 6.7 6.7 6.6 6.5 6.6 6.5 6.4
6.1 6.1 6.2 6.2 6.2 6.2 6.2 6.2 6.1 6.0 6.0 5.9 5.8 5.7 5.7 5.7 5.7 5.6 5.7 5.8 5.7 5.8 5.9 5.9 6.0 5.9 6.0 5.9 5.8 5.7 5.7 5.7 5.8 6.0 6.2 6.4 6.6 6.6 6.6 6.6 6.6 6.7 6.7
6.2 6.3 6.3 6.3 6.3 6.2 6.2 6.2 6.1 6.1 6.1 6.0 5.9 5.8 5.7 5.6 5.7 5.7 5.9 6.0 5.9 5.8 5.9 6.0 6.0 5.9 5.9 6.0 5.9 5.9 5.9 6.0 5.9 6.0 6.3 6.3 6.4 6.6 6.8 6.7 6.6 6.6 6.7
6.6 6.6 6.5 6.3 6.3 6.3 6.3 6.3 6.2 6.2 6.2 6.1 6.1 6.0 5.8 5.7 5.6 5.7 5.9 5.9 5.8 5.8 5.9 5.8 5.7 5.7 5.7 5.9 5.9 6.0 6.0 6.0 5.9 6.0 6.1 6.3 6.4 6.6 6.6 6.7 6.6 6.6 6.6
6.5 6.6 6.6 6.4 6.3 6.2 6.1 6.1 6.1 6.2 6.1 6.1 6.0 6.0 6.0 6.0 6.0 5.9 5.9 5.9 5.9 5.8 5.8 5.7 5.7 5.7 5.8 5.8 5.8 5.8 5.8 5.7 5.9 6.1 6.2 6.1 6.2 6.4 6.4 6.5 6.5 6.5 6.6
6.7 6.6 6.6 6.6 6.6 6.4 6.2 6.1 6.1 6.0 6.0 6.0 5.9 5.8 5.7 5.7 5.8 5.9 5.8 5.8 5.6 5.6 5.6 5.7 5.7 5.7 5.7 5.7 5.5 5.3 5.3 5.6 5.9 6.0 6.0 6.2 6.3 6.3 6.3 6.4 6.5 6.5 6.5
6.6 6.7 6.6 6.5 6.5 6.6 6.5 6.5 6.4 6.4 6.4 6.2 6.0 5.9 5.6 5.7 5.7 5.6 5.6 5.6 5.7 5.6 5.7 5.8 5.8 5.6 5.5 5.5 5.6 5.5 5.4 5.7 5.9 6.1 6.1 6.2 6.2 6.2 6.4 6.4 6.4 6.5 6.5
6.2 6.3 6.4 6.5 6.4 6.3 6.2 6.1 6.1 6.2 6.3 6.4 6.4 6.4 6.3 6.2 6.2 6.1 6.0 5.9 5.6 5.4 5.5 5.7 5.7 5.7 5.6 5.6 5.8 5.9 6.0 5.9 5.7 5.8 6.0 6.0 6.2 6.4 6.3 6.3 6.4 6.5 6.5
6.5 6.4 6.3 6.3 6.3 6.2 6.2 6.3 6.3 6.3 6.2 6.2 6.1 6.1 6.1 6.0 5.9 5.9 5.9 6.0 6.1 5.9 5.7 5.6 5.6 5.4 5.4 5.5 5.8 5.7 5.9 6.0 6.0 5.8 5.8 5.8 5.9 6.2 6.1 6.1 6.2 6.5 6.8
6.8 6.6 6.5 6.4 6.5 6.5 6.5 6.4 6.4 6.3 6.1 5.9 5.8 5.8 5.8 5.8 5.8 5.8 5.8 5.9 5.9 5.9 5.8 5.6 5.4 5.4 5.3 5.5 5.6 5.7 5.8 5.7 5.8 5.6 5.7 5.7 5.6 5.8 6.0 6.2 6.3 6.3 6.6
Wind_Speed
7 12 20 19 18 16 16 16 16 16 16 16 14 13 11 10 9 9 9 10 15 15 14 13 12 12 13 14 16 16 15 15 14 13 12 12 12 11 9 12 10 9 10
10 14 21 20 19 18 17 16 15 16 16 16 15 13 10 10 10 10 10 15 15 14 13 12 11 11 12 14 15 15 14 14 13 11 10 10 9 10 9 9 9 9 10
12 16 19 20 19 17 16 16 14 15 15 15 13 12 9 10 10 10 11 14 15 14 13 11 11 11 12 13 13 12 10 8 7 8 7 5 5 8 8 7 5 5 6
15 15 16 19 18 18 16 16 15 15 16 14 12 10 9 9 11 11 10 14 14 13 12 11 11 11 11 12 11 9 7 4 2 3 6 6 4 8 7 9 7 1 5
13 16 16 19 18 17 15 13 16 16 14 11 11 10 7 12 14 12 14 15 14 12 11 11 10 11 11 10 9 7 6 7 8 8 8 11 9 8 8 10 15 17 12
9 14 24 19 17 15 13 15 17 16 12 10 11 10 7 13 15 13 16 15 12 11 11 11 9 9 9 9 8 7 5 11 10 8 8 9 11 13 12 11 12 13 14
9 13 21 21 17 15 16 16 17 15 14 12 10 10 9 11 13 11 12 11 10 10 10 9 8 6 6 6 7 7 8 11 9 7 8 7 7 9 9 7 10 9 8
11 11 16 20 17 16 16 16 16 15 14 14 11 10 10 11 9 11 11 10 8 8 8 8 6 4 3 2 5 5 5 9 8 6 6 6 6 7 6 7 7 6 6
11 11 12 14 17 17 16 16 16 16 16 15 14 13 10 8 8 8 8 7 7 7 7 6 5 3 1 0 2 4 3 9 7 6 6 6 7 6 5 6 6 5 5
6 11 12 12 15 15 15 17 17 16 16 16 14 12 14 14 12 9 7 5 5 6 6 4 3 2 2 2 1 3 3 4 5 5 7 8 7 6 5 5 5 5 5
5 6 7 9 11 15 16 15 17 15 16 17 15 13 12 11 11 11 11 9 8 7 7 5 4 3 3 3 3 1 1 1 4 5 8 8 6 6 6 5 6 6 5
5 5 5 6 7 13 11 12 14 14 14 14 15 14 12 11 10 9 9 9 9 10 9 7 5 4 3 3 3 2 1 2 5 6 8 9 7 6 5 5 6 6 6
6 4 6 5 8 10 8 11 11 12 13 14 14 15 12 10 9 9 8 8 8 10 8 8 7 6 6 5 5 4 4 4 7 9 10 11 9 7 6 6 6 6 6
6 7 6 6 6 8 10 9 10 9 11 11 14 15 12 9 9 9 9 11 11 11 11 11 9 8 8 8 7 7 5 6 8 12 13 14 12 10 9 9 9 7 7
7 7 7 6 6 7 7 7 8 8 9 11 13 15 15 9 6 9 10 11 12 12 11 9 10 9 9 10 10 10 10 9 9 13 14 16 15 13 12 10 10 9 8
7 7 7 8 9 10 6 7 8 10 12 12 12 14 17 13 10 9 7 9 10 13 13 12 9 7 7 8 8 12 13 11 11 13 16 17 17 15 14 12 12 11 11
7 7 9 8 11 9 9 9 8 11 12 11 13 15 16 16 13 11 8 6 11 14 14 11 10 8 4 6 6 9 11 13 12 13 16 17 18 18 16 14 13 13 13
5 8 9 8 8 10 9 10 10 11 11 12 13 14 16 15 16 13 8 7 12 13 11 6 4 4 4 4 4 5 6 10 12 14 14 17 18 18 20 18 16 16 16
8 6 7 7 8 9 7 8 8 11 10 11 12 13 15 16 16 14 11 12 14 10 7 6 5 5 4 5 6 6 5 5 7 11 11 16 19 20 21 22 21 19 19
3 5 6 4 5 5 2 2 2 3 5 9 9 11 15 15 16 14 11 9 10 5 5 4 7 4 4 5 4 5 4 4 5 5 7 13 16 19 22 22 21 19 22
6 5 3 4 2 3 2 3 3 4 3 3 7 12 11 10 11 12 9 6 8 6 7 7 5 7 5 2 2 3 4 5 6 6 7 7 10 15 17 17 18 19 19
5 4 5 4 4 2 2 1 1 1 2 2 2 8 11 11 12 10 6 5 6 6 6 7 7 2 2 4 3 0 3 3 4 7 5 7 8 9 12 16 17 19 19
5 4 4 4 4 3 2 1 1 1 1 1 1 2 2 6 9 10 9 5 5 5 6 6 5 7 7 3 5 3 2 4 2 1 4 5 7 4 6 9 13 15 19
4 4 5 5 4 4 4 3 1 1 1 2 2 3 4 6 6 7 8 8 5 4 5 6 6 7 4 6 1 6 2 2 3 4 1 2 4 6 6 6 10 14 18
5 5 4 6 6 5 5 3 2 1 1 2 2 4 5 5 7 8 7 6 5 4 6 6 5 6 5 4 4 2 4 2 1 2 9 4 2 3 3 4 8 10 15
5 5 5 6 4 5 5 5 4 2 1 1 1 2 3 3 3 6 8 6 5 4 5 5 5 6 6 5 4 4 4 3 3 4 5 6 4 2 2 3 4 6 7
Wind_Direction
178 164 147 149 144 143 141 139 135 134 129 123 114 106 103 102 102 109 111 104 108 102 100 97 95 92 90 88 89 89 89 85 82 79 74 68 82 78 75 55 79 89 102
145 155 150 150 148 148 149 146 143 142 140 131 124 113 113 111 110 116 104 128 106 106 104 101 101 98 95 97 98 95 93 89 80 75 72 69 82 84 80 67 64 75 77
148 150 151 151 149 149 143 146 148 142 134 119 118 112 121 119 115 127 113 121 113 110 105 103 105 105 100 101 101 95 90 82 71 72 62 67 93 89 82 72 72 73 85
146 148 152 148 147 139 145 157 152 138 122 116 118 123 127 131 133 131 119 129 118 112 108 109 108 106 107 108 102 92 82 72 116 72 44 55 130 109 87 69 45 150 144
143 147 152 146 141 145 150 146 132 112 113 125 125 126 142 138 137 135 129 121 122 118 117 120 117 114 116 116 107 94 75 86 115 111 87 70 81 114 93 73 55 61 110
129 149 147 144 147 146 143 135 123 124 127 128 130 139 142 129 139 141 133 127 126 129 130 129 127 125 124 121 110 92 81 124 121 120 109 91 83 94 89 80 75 60 65
129 143 146 143 148 142 136 130 130 133 131 130 138 152 140 124 124 128 125 129 140 138 137 137 138 134 129 121 110 100 100 133 132 132 114 99 101 100 82 64 65 66 53
135 133 141 145 151 149 146 141 141 140 139 139 148 162 149 144 140 143 143 151 152 147 148 150 153 151 141 105 94 85 92 144 137 131 121 111 109 96 81 77 71 68 57
138 137 143 153 157 156 157 153 153 153 150 153 161 167 165 156 156 158 161 162 160 158 160 166 172 182 203 29 61 73 55 163 141 148 152 136 128 107 95 79 74 77 77
135 157 163 162 162 162 165 169 167 167 162 161 170 174 167 168 171 172 172 178 171 168 173 178 198 228 269 303 317 71 69 163 161 172 172 160 154 137 127 108 99 94 89
128 159 165 166 173 164 169 178 179 179 172 169 171 178 175 177 179 178 177 181 178 179 185 190 215 248 280 303 317 16 46 150 197 199 187 185 180 159 151 140 128 121 114
166 180 179 174 176 155 164 177 179 177 178 176 177 182 184 185 189 191 193 193 192 194 194 201 221 246 269 286 291 316 310 315 224 213 207 194 189 182 173 166 156 147 137
182 175 182 182 179 155 153 166 173 174 178 185 187 189 190 191 195 198 206 213 213 211 215 211 216 217 227 243 250 241 220 243 219 216 214 206 201 199 191 182 177 168 157
176 192 178 176 183 176 164 175 178 172 182 187 197 195 189 194 203 207 210 215 217 218 219 216 218 229 240 246 249 262 242 250 232 216 214 210 207 205 197 192 190 185 183
187 196 196 179 191 191 181 180 182 191 188 198 200 203 199 194 201 208 218 218 222 223 220 215 221 228 239 246 248 251 258 239 235 225 225 221 216 207 202 200 199 198 196
195 198 199 199 198 186 190 189 198 189 200 198 207 209 205 203 206 207 219 219 224 223 229 222 221 223 234 237 251 248 254 244 234 233 230 231 226 216 208 211 209 208 207
206 198 198 202 198 191 195 199 198 201 195 200 210 213 207 208 210 211 217 214 222 220 228 229 236 234 237 236 248 252 248 251 237 233 228 228 226 224 216 220 219 217 217
203 198 202 200 187 191 199 205 206 202 198 206 207 208 213 214 212 213 216 222 221 214 210 212 220 230 231 224 235 240 237 242 238 234 228 223 224 224 222 220 222 223 222
231 238 212 195 182 188 196 196 195 205 206 213 211 215 217 215 216 214 219 222 206 211 211 215 221 210 218 231 236 245 237 234 233 239 223 220 222 222 221 222 223 219 218
222 228 242 206 201 196 183 165 188 211 232 223 218 215 221 222 218 210 225 222 202 213 218 200 222 205 218 235 236 249 246 246 244 238 231 224 219 220 220 221 224 223 220
61 80 61 129 60 153 154 171 193 211 198 211 223 234 230 233 229 217 224 211 186 199 227 218 213 218 236 164 74 278 261 232 233 239 229 235 233 224 221 221 222 223 221
101 82 69 64 50 65 107 128 120 212 242 240 219 230 231 230 233 228 229 235 217 211 214 219 213 215 245 173 184 34 302 311 257 233 210 228 235 216 220 219 216 218 218
107 94 69 38 34 42 49 77 52 13 356 329 271 266 261 258 254 232 229 224 219 200 220 220 199 207 245 186 202 197 249 234 334 303 240 230 233 207 225 218 217 216 218
132 108 102 88 66 37 26 57 90 194 232 279 318 325 327 335 308 280 246 227 225 210 215 224 217 215 192 231 186 239 250 145 230 308 302 284 233 226 213 207 206 215 215
131 115 98 92 69 62 70 77 79 67 295 320 328 325 326 328 338 347 324 279 240 214 224 218 203 199 204 219 201 167 223 199 150 233 284 261 273 245 250 233 229 219 215
106 100 95 93 61 55 69 67 83 93 291 332 320 328 337 338 16 12 358 346 292 254 233 228 223 210 205 214 209 196 202 199 196 212 249 270 235 276 251 226 202 215 236